Location: ????
(31.9631°N, 34.9143°E)
Time: 12:06:38
(UTC+00:00)

Daily predictions for brighter satellites

Satellite Brightness Start Highest point End
(mag) Time Altitude Azimuth Time Altitude Azimuth Time Altitude Azimuth
USA 238 DEB 4.1 16:47:44 10° S 16:53:39 37° ESE 16:59:42 10° NE
USA 238 4.1 16:47:52 10° S 16:53:46 37° ESE 16:59:48 10° NE
Cosmos 1782 2.8 16:51:16 10° N 16:55:16 66° E 16:59:15 10° SSE
CSL-04 Rocket 3.8 16:50:22 10° S 16:55:39 81° WSW 17:00:57 10° NNW
CZ-4 R/B 3.4 16:55:23 10° SSW 16:58:49 30° W 17:02:20 10° NW
SJ-11-01 4.4 16:56:27 10° SSE 17:01:09 88° WSW 17:05:55 10° NNW
BREEZE M DEB (TANK) 4.3 17:01:41 10° W 17:03:03 15° SW 17:04:23 10° S
ARGOS 3.2 16:59:06 10° SSE 17:04:25 63° ENE 17:09:43 10° N
CENTAUR R/B 3.3 17:01:04 10° SSE 17:05:12 22° ESE 17:09:44 10° ENE
Cosmos 1805 Rocket 3.7 17:01:39 10° S 17:05:57 53° E 17:10:18 10° NNE
Ariane Rocket 3.3 17:03:43 10° SE 17:08:32 47° ENE 17:13:21 10° N
Yuri Rocket 4.0 17:05:36 10° SW 17:09:39 29° SSE 17:12:36 14° ESE
FREGAT/IRIS 3.4 17:07:51 13° SE 17:09:40 26° ENE 17:11:55 10° NNE
Cosmos 972 Rocket 3.9 17:05:42 10° N 17:10:33 66° ENE 17:15:32 10° SSE
Cosmos 2082 Rocket 2.3 17:05:10 10° S 17:10:45 58° ESE 17:16:19 10° NNE
COSMOS 2406 4.3 17:05:13 10° SW 17:10:47 51° WNW 17:16:22 10° N
Cosmos 1992 Rocket 4.3 17:07:37 10° NNW 17:12:49 70° WSW 17:17:59 10° S
Cosmos 407 Rocket 3.5 17:07:51 10° SSW 17:13:11 83° ESE 17:18:29 10° NNE
Skynet4D Del rocket 3.9 17:08:07 10° WSW 17:13:17 50° S 17:17:43 14° ESE
CZ-2C R/B 2.6 17:08:34 10° NNE 17:13:40 56° E 17:18:51 10° S
deb Kosmos-1763 4.3 17:10:27 10° S 17:13:53 43° ESE 17:17:20 10° NNE
Cosmos 1190 Rocket 4.0 17:10:03 10° S 17:15:15 69° ESE 17:20:31 10° NNE
IRIDIUM 106 4.5 17:11:38 10° SSE 17:16:40 52° E 17:21:43 10° NNE
Cosmos 1633 Rocket 3.9 17:20:01 10° SSE 17:23:52 30° E 17:27:46 10° NNE
Cosmos 1140 Rocket 3.4 17:19:53 10° SSW 17:25:07 82° ESE 17:30:23 10° NNE
MetOp-A 4.5 17:21:47 12° SE 17:26:33 47° ENE 17:31:39 10° N
BREEZE-M DEB (TANK) 2.9 17:23:11 10° NW 17:27:48 35° NNE 17:29:15 21° E
Intercosmos 25 3.6 17:31:07 10° NNE 17:34:12 33° E 17:35:01 29° ESE
Cosmos 1818 3.7 17:29:20 10° NNW 17:34:43 60° ENE 17:38:13 22° SE
Aureole 1 Rocket 4.2 17:29:17 10° S 17:35:40 73° ESE 17:43:39 10° NNE
ATLAS 5 CENTAUR R/B 2.7 17:32:54 10° NW 17:39:04 74° WSW 17:45:22 13° SSE
Cosmos 2084 Rocket 4.0 17:35:28 10° S 17:39:07 31° ESE 17:42:51 10° NE
Meteor 2-6 Rocket 4.5 17:38:04 10° NNW 17:43:40 72° W 17:49:24 10° S
NOSS 3-2 (A) 3.3 17:39:46 10° SSW 17:45:13 82° WNW 17:51:18 10° NNE
Cosmos 1707 Rocket 3.7 17:42:23 10° N 17:46:35 49° E 17:48:15 31° SE
USA 186 3.0 17:45:52 15° SSW 17:47:14 26° W 17:49:13 10° NW
OBJECT-B 1.1 17:46:57 42° ESE 17:47:29 48° ENE 17:50:40 10° N
Cosmos 1980 Rocket 3.1 17:42:35 10° N 17:47:35 31° ENE 17:49:29 25° E
H-2A R/B 4.5 17:45:24 10° NE 17:48:22 26° E 17:48:22 26° E
Cosmos 1656 4.1 17:45:39 10° NNW 17:51:04 60° WSW 17:56:04 12° S
Cosmos 1470 Rocket 4.2 17:51:08 33° ESE 17:51:32 34° E 17:55:30 10° NNE
Genesis I 4.5 17:49:08 10° N 17:52:22 25° NE 17:52:42 25° ENE
NOSS 3-2 (C) 3.1 17:49:04 10° SSW 17:54:28 67° ESE 18:00:27 10° NE
CZ-2C R/B 3.6 17:50:12 10° NNE 17:54:45 89° ESE 17:59:12 10° SSW
USA 267 3.1 17:49:54 10° NE 17:56:28 79° SE 18:03:00 10° SW
H-2A R/B 4.0 17:52:31 10° SSW 17:56:50 27° W 18:01:06 10° NW
SJ-6B 3.5 17:54:22 14° S 17:57:45 53° W 18:01:41 10° NNW
Sich 1 4.1 17:53:47 10° SSW 17:58:02 47° W 18:02:19 10° N
Cosmos 1184 Rocket 2.6 18:00:32 71° E 18:00:32 71° E 18:03:48 10° NNE
SL-8 R/B 4.2 17:55:53 10° WNW 18:00:34 53° SW 18:02:30 32° SSE
Cosmos 1697 Rocket 2.6 17:55:25 10° NNW 18:01:03 85° ENE 18:03:55 30° SSE
Cosmos 1934 Rocket 3.9 17:55:00 10° S 18:01:19 78° E 18:07:42 10° N
Shenzhou-11 Module 3.4 18:01:31 10° NW 18:02:54 27° NNW 18:02:54 27° NNW
Cosmos 405 Rocket 4.4 18:07:15 20° NE 18:07:15 20° NE 18:08:44 10° NNE
Meteor 1-4 Rocket 2.9 18:04:26 10° N 18:07:15 47° NE 18:07:15 47° NE
USA 32 4.2 18:07:13 41° SE 18:08:30 51° E 18:13:33 10° NNE
Cosmos 1850 Rocket 4.2 18:10:10 44° ESE 18:10:40 46° ESE 18:15:43 10° NNE
Resurs 01 Rocket 1.7 18:10:13 53° ESE 18:10:44 57° ENE 18:15:05 10° N
Cosmos 1862 Rocket 3.9 18:09:45 10° N 18:13:46 46° ENE 18:13:46 46° ENE
Meteor 2-20 4.3 18:11:01 10° N 18:17:12 83° E 18:20:03 34° S
Cosmos 1812 4.3 18:13:48 10° NNW 18:17:15 32° W 18:19:35 17° SW
Meteor 1-27 Rocket 4.1 18:16:19 10° NNW 18:22:13 68° W 18:25:45 25° S
SPOT 3 Rocket 3.7 18:21:10 35° S 18:23:22 72° WSW 18:28:34 10° NNW
ATLAS 3B R/B 3.7 18:27:32 26° ENE 18:27:32 26° ENE 18:30:45 10° NE
GP-B 3.3 18:23:36 10° N 18:27:27 58° NE 18:27:27 58° NE
Cosmos 192 4.3 18:26:41 10° N 18:31:31 67° ENE 18:31:31 67° ENE
Cosmos 1933 Rocket 3.9 18:33:08 53° NNE 18:33:08 53° NNE 18:36:38 10° N
CZ-3A R/B 4.1 18:01:06 10° W 18:32:23 51° SSW 18:36:31 36° SSE
Meteor 1-14 Rocket 4.3 18:40:47 63° E 18:40:47 63° E 18:46:30 10° NNE
MetOp-B 4.0 18:41:17 76° E 18:41:26 77° ENE 18:46:48 10° N
Spot 2 Rocket 3.8 18:45:22 54° NE 18:45:22 54° NE 18:49:42 10° N
Cosmos 1741 Rocket 4.0 18:47:38 68° SW 18:48:12 77° WNW 18:53:29 10° NNE
USA 245 4.4 18:49:21 70° ESE 18:49:57 76° ENE 18:56:16 10° N
SL-16 R/B 3.4 18:48:21 10° N 18:52:22 30° NE 18:52:22 30° NE
CENTAUR R/B 3.4 18:49:51 10° SW 18:55:13 44° NW 19:01:28 10° NNE
Cosmos 1605 Rocket 4.5 18:54:40 28° SSW 18:57:46 55° W 19:03:43 10° N
Terra 3.9 19:01:13 17° NNE 19:01:13 17° NNE 19:02:41 10° NNE
Meteor 1-18 Rocket 4.5 18:56:57 10° N 19:01:32 59° NNE 19:01:32 59° NNE
Molniya-1 4.4 19:05:02 83° SSW 19:05:16 89° SE 19:17:12 10° NNE
Lacrosse 5 3.3 19:03:02 10° NNW 19:06:26 29° NNE 19:06:26 29° NNE
Cosmos 2322 Rocket 3.4 19:06:58 10° N 19:10:41 31° NNE 19:10:41 31° NNE
Cosmos 1763 Rocket 4.4 19:08:47 10° N 19:12:26 43° N 19:12:26 43° N
ATLAS 2A CENTAUR R/B 4.3 18:53:52 10° SW 19:15:55 40° S 19:15:55 40° S
Cosmos 1459 Rocket 4.5 19:23:40 53° NNE 19:23:40 53° NNE 19:28:26 10° N
Cosmos 2360 Rocket 4.1 19:18:18 10° N 19:20:54 20° NNE 19:20:54 20° NNE
NOSS 3-3 (A) 4.5 19:16:24 10° NNW 19:24:20 85° WSW 19:24:51 80° S
NOSS 3-3 (C) 4.5 19:16:31 10° NNW 19:24:27 86° WSW 19:24:57 80° S
Cosmos 1980 Rocket 3.7 19:26:42 10° NW 19:31:16 28° W 19:31:16 28° W
USA 234 4.2 20:10:47 42° N 20:10:47 42° N 20:15:35 10° NNW
ATLAS 3B R/B 3.9 20:14:38 33° WNW 20:15:24 34° NW 20:21:22 10° NNE
Cosmos 2219 Rocket 4.5 20:33:23 10° N 20:35:05 19° N 20:35:05 19° N
SL-16 R/B 4.0 22:52:56 31° NE 22:52:56 31° NE 22:56:48 10° N
ADEOS II 4.1 23:17:17 10° NNE 23:19:38 23° NE 23:19:38 23° NE
Cosmos 1943 4.4 23:45:22 10° N 23:50:31 36° ENE 23:50:50 36° ENE
CZ-2D R/B 3.9 23:45:47 10° N 23:48:16 26° NNW 23:48:16 26° NNW
ARIANE 5 R/B 4.1 23:47:12 10° NNE 23:50:53 31° ENE 23:50:53 31° ENE
